UFO 2 (USA 95)

Last updated on Sept. 26, 2020, 5:40 a.m. UTC

1 22787U 93056A   20269.48252715  .00000111  00000-0  00000-0 0  9995
2 22787  11.3090  14.7344 0008898 223.8227 328.6520  1.00272249 97698
UTC
Height (km)
Latitude
Longitude
Inclination
Orbital Period
UTC large
Height (km)
Speed (km/s)
/
Latitude / Longitude
Inclination (degrees)
Orbital Period (minutes)
Azimuth
Elevation
Range (km)
Doppler Factor
iOS Compass Heading
iOS Angle

Next 30 passes for location: Hong Kong

Rise time Rise Azimuth (degrees) Set time Set Azimuth (degrees) Duration Max altitude (degrees)

No matching passes for this satellites